[[{"header":{"parameterUnit":"m.s-1","parameterCategory":1,"la1":30.2991,"la2":30.254,"lo1":-89.0895,"lo2":-89.0444,"dy":0.0017,"dx":0.0017,"nx":28,"ny":28,"refTime":"2025-08-15T03:00:00:Z","depth":0,"parameterNumber":2,"parameterNumberName":"U-component_of_WINDS"},"data":[0,0,0,0,0,0,0,0,0,0,0,0,0,0,0,0,0,0,0,0,0,0,0,0,0,0,0,0,0,0,0,0,0,0,0,0,0,0,0,0,0,0,0,0,0,0,0,0,0,0,0,0,0,0,0,0,0,0,2.0165,2.0165,0,2.0182,2.0183,2.0183,2.0141,2.0139,2.0138,2.0137,2.0154,2.0156,2.0157,0,0,0,0,0,0,0,0,0,0,0,0,0,2.0095,2.0097,2.0165,2.0165,2.0165,2.0182,2.0183,2.0183,2.0141,2.0139,2.0138,2.0136,2.0153,2.0155,2.0157,0,0,0,0,0,0,0,0,0,0,0,0,0,2.012,2.0097,2.0165,2.0147,2.0145,2.0182,2.0183,2.0183,2.0141,2.0139,2.0137,2.0136,2.0153,2.0155,2.0158,2.0213,0,0,2.0165,2.0166,0,0,0,0,0,0,0,0,2.0119,2.0123,2.0149,2.0148,2.0146,2.0157,2.0164,2.0193,2.0142,2.0143,2.0137,2.0135,2.0157,2.0159,2.0166,2.0214,2.0215,2.0166,2.0167,2.0168,2.0169,0,0,0,0,0,0,0,2.0117,2.0122,2.0172,2.015,2.0148,2.0137,2.0139,2.0169,2.0161,2.0143,2.014,2.0142,2.0155,2.0164,2.0166,2.0215,2.0166,2.0168,2.0169,2.017,2.031,2.0312,0,0,0,0,0,0,2.0118,2.0121,2.0171,2.0172,2.0128,2.014,2.0142,2.0156,2.016,2.0159,2.0144,2.014,2.0161,2.0163,2.0167,2.0233,2.0168,2.0171,2.0172,2.0308,2.031,2.0313,0,0,0,0,0,0,2.0117,2.0123,2.0171,2.0146,2.0151,2.0144,2.016,2.0157,2.0166,2.0161,2.0159,2.0154,2.0159,2.0163,2.0202,2.0233,2.0172,2.0174,2.0305,2.0309,2.0312,2.0365,0,0,0,0,0,0,2.0115,2.0123,2.0144,2.0147,2.0153,2.0206,2.0162,2.0159,2.017,2.0166,2.017,2.0169,2.0158,2.0199,2.0205,2.0235,2.0176,2.0302,2.0307,2.0311,2.036,2.0369,2.0377,0,0,0,0,0,2.0112,2.0157,2.0145,2.0151,2.0179,2.0208,2.0211,2.0197,2.0173,2.0194,2.0191,2.0169,2.0229,2.0203,2.021,2.0241,2.03,2.0306,2.031,2.0356,2.0368,2.0377,0,0,0,0,0,0,2.0157,2.0157,2.0143,2.0191,2.02,2.0201,2.0227,2.0209,2.0225,2.022,2.0202,2.0204,2.0246,2.0247,2.0219,2.0296,2.026,2.0267,2.0293,2.0304,2.0312,2.0311,2.0178,0,0,0,0,0,2.0173,2.0197,2.0195,2.0237,2.0242,2.0234,2.0246,2.0235,2.0243,2.0247,2.0247,2.0255,2.0276,2.029,2.0309,2.036,2.0361,2.0385,2.0394,2.0401,2.0407,2.0435,2.0446,2.0329,2.0329,2.0329,0,0,2.0205,2.0208,2.0224,2.0246,2.0252,2.0277,2.0237,2.0265,2.0284,2.0251,2.0288,2.0288,2.0297,2.0343,2.0363,2.0345,2.0439,2.0407,2.0413,2.0415,2.0441,2.0452,2.0462,2.0332,2.0332,2.0331,0,0,2.0277,2.0281,2.0317,2.0324,2.0333,2.0327,2.0336,2.034,2.0339,2.0376,2.0352,2.0374,2.0409,2.0417,2.0425,2.0501,2.0482,2.0508,2.0552,2.058,2.0589,2.0597,2.0625,2.0635,2.0513,2.0514,2.0514,0,2.0315,2.0352,2.0337,2.0367,2.0378,2.035,2.0386,2.0394,2.0408,2.0416,2.0396,2.0442,2.0445,2.0493,2.0512,2.0519,2.0529,2.0507,2.0589,2.0597,2.0604,2.063,2.0641,2.0517,2.0516,2.0516,2.0516,0,2.04,2.0426,2.0454,2.0469,2.0483,2.0516,2.0506,2.0522,2.051,2.0507,2.0545,2.0549,2.0569,2.0579,2.0567,2.0625,2.0614,2.0592,2.0556,2.0619,2.0643,2.0653,2.0521,2.052,2.0519,2.0518,0,0,2.0499,2.0507,2.0518,2.0525,2.0534,2.0553,2.0585,2.0605,2.0619,2.0631,2.0657,2.0689,2.0669,2.0679,2.0667,2.0692,2.0752,2.0667,2.0667,2.0683,2.0818,2.0834,2.0846,2.074,2.0742,2.0743,2.0817,0,2.057,2.0625,2.0614,2.0668,2.0692,2.0667,2.0695,2.0703,2.0701,2.0721,2.0719,2.0742,2.0713,2.0719,2.0742,2.074,2.0779,2.0735,2.0764,2.0766,2.0763,2.0859,2.0876,2.0946,2.0826,2.0828,2.0829,0,2.066,2.0676,2.0733,2.0739,2.0748,2.0774,2.0791,2.0811,2.082,2.0817,2.0829,2.0813,2.0845,2.081,2.0854,2.0824,2.0835,2.0836,2.0839,2.0841,2.0801,2.0864,2.0968,2.0978,2.0844,2.0842,2.0841,0,2.0727,2.0763,2.0802,2.0809,2.0816,2.0835,2.0839,2.0846,2.0859,2.0875,2.0883,2.0902,2.0912,2.0927,2.0917,2.0892,2.0963,2.0926,2.0961,2.0962,2.0977,2.0977,2.1085,2.0985,2.0985,2.0984,2.0984,0,2.0808,2.0844,2.0832,2.0856,2.0896,2.0882,2.0922,2.0923,2.093,2.0954,2.0933,2.0956,2.0941,2.0963,2.0956,2.0994,2.0998,2.0997,2.0994,2.0999,2.0999,2.1006,2.1001,2.0987,2.0987,2.0986,2.0986,0,2.089,2.0883,2.0924,2.0929,2.0931,2.096,2.0963,2.0986,2.0983,2.1013,2.102,2.1014,2.1039,2.1031,2.1057,2.1052,2.1101,2.1092,2.1098,2.1096,2.1132,2.1128,2.1248,2.1263,2.1153,2.1154,2.1155,0,2.0942,2.0969,2.0977,2.0991,2.0997,2.1021,2.1034,2.1022,2.1037,2.105,2.1071,2.1094,2.1112,2.1153,2.1151,2.1171,2.1163,2.1204,2.1166,2.117,2.1164,2.1163,2.1166,2.1211,2.1212,2.1213,2.1214,0,2.1035,2.1031,2.1051,2.107,2.1087,2.1102,2.1114,2.1128,2.1116,2.1134,2.1159,2.1173,2.12,2.1224,2.1242,2.1246,2.1229,2.1226,2.1236,2.124,2.1243,2.1242,2.1119,2.1223,2.1223,2.1222,2.1221,2.1221,2.1103,2.1127,2.1136,2.116,2.1168,2.1181,2.1202,2.1202,2.1223,2.1245,2.1236,2.1266,2.1275,2.1298,2.1305,2.1328,2.1312,2.1325,2.1329,2.1332,2.1337,2.1239,2.1331,2.1331,2.1331,2.133,2.133,0,2.1196,2.1201,2.1222,2.1241,2.126,2.1243,2.1256,2.1273,2.1299,2.1309,2.1328,2.1357,2.138,2.1381,2.1402,2.142,2.1413,2.1426,2.1425,2.1426,2.135,2.134,2.1432,2.1432,2.1432,2.1432,2.1432,2.1432,2.1246,2.1285,2.1282,2.1325,2.133,2.1359,2.1368,2.138,2.1388,2.1422,2.1441,2.1442,2.1449,2.147,2.1491,2.149,2.1499,2.1516,2.1513,2.1441,2.1431,2.1422,2.1412,2.1518,2.1518,2.1587,2.1588,2.1588]},{"header":{"parameterUnit":"m.s-1","parameterCategory":1,"la1":30.2991,"la2":30.254,"lo1":-89.0895,"lo2":-89.0444,"dy":0.0017,"dx":0.0017,"nx":28,"ny":28,"refTime":"2025-08-15T03:00:00:Z","depth":0,"parameterNumber":3,"parameterNumberName":"V-component_of_WINDS"},"data":[0,0,0,0,0,0,0,0,0,0,0,0,0,0,0,0,0,0,0,0,0,0,0,0,0,0,0,0,0,0,0,0,0,0,0,0,0,0,0,0,0,0,0,0,0,0,0,0,0,0,0,0,0,0,0,0,0,0,-2.6863,-2.6864,0,-2.6923,-2.6924,-2.6925,-2.6912,-2.6911,-2.691,-2.6909,-2.6967,-2.697,-2.6973,0,0,0,0,0,0,0,0,0,0,0,0,0,-2.6734,-2.6736,-2.6863,-2.6864,-2.6864,-2.6923,-2.6924,-2.6925,-2.6912,-2.6911,-2.6909,-2.6908,-2.6967,-2.697,-2.6973,0,0,0,0,0,0,0,0,0,0,0,0,0,-2.6791,-2.6737,-2.6863,-2.6865,-2.6866,-2.6923,-2.6924,-2.6925,-2.6912,-2.6911,-2.6909,-2.6907,-2.6966,-2.6969,-2.6973,-2.7031,0,0,-2.6985,-2.6987,0,0,0,0,0,0,0,0,-2.6788,-2.6796,-2.6864,-2.6865,-2.6866,-2.6908,-2.69,-2.696,-2.6913,-2.6895,-2.6909,-2.6907,-2.6949,-2.6954,-2.6969,-2.7033,-2.7036,-2.6985,-2.6988,-2.699,-2.6991,0,0,0,0,0,0,0,-2.6784,-2.6794,-2.6887,-2.6865,-2.6866,-2.6862,-2.6869,-2.6911,-2.693,-2.6896,-2.6895,-2.6903,-2.6949,-2.6965,-2.697,-2.7037,-2.6985,-2.6989,-2.6991,-2.6993,-2.7152,-2.7154,0,0,0,0,0,0,-2.678,-2.679,-2.6885,-2.6888,-2.6822,-2.6866,-2.6873,-2.6896,-2.693,-2.6933,-2.6904,-2.6902,-2.6959,-2.6966,-2.6972,-2.7042,-2.6989,-2.6993,-2.6995,-2.715,-2.7153,-2.7155,0,0,0,0,0,0,-2.6777,-2.6788,-2.6882,-2.6839,-2.6851,-2.687,-2.6896,-2.6899,-2.6915,-2.6936,-2.6939,-2.6917,-2.6958,-2.6967,-2.7017,-2.7044,-2.6995,-2.6998,-2.7148,-2.7151,-2.7154,-2.7183,0,0,0,0,0,0,-2.6773,-2.6787,-2.681,-2.684,-2.6853,-2.6927,-2.6898,-2.6901,-2.6922,-2.692,-2.6949,-2.6952,-2.6958,-2.7011,-2.7021,-2.7049,-2.7002,-2.7146,-2.7149,-2.7153,-2.7179,-2.7186,-2.7192,0,0,0,0,0,-2.6769,-2.6815,-2.6811,-2.6823,-2.6882,-2.6928,-2.6936,-2.6942,-2.6924,-2.6947,-2.6961,-2.6952,-2.704,-2.7016,-2.7027,-2.7057,-2.7144,-2.7148,-2.7152,-2.7177,-2.7185,-2.7192,0,0,0,0,0,0,-2.6786,-2.6819,-2.6815,-2.6872,-2.6898,-2.6926,-2.6955,-2.695,-2.698,-2.6977,-2.6982,-2.6989,-2.704,-2.7053,-2.7026,-2.7114,-2.7089,-2.7096,-2.7104,-2.7112,-2.7118,-2.7114,-2.7005,0,0,0,0,0,-2.6797,-2.6833,-2.6859,-2.6907,-2.692,-2.6935,-2.6955,-2.6958,-2.6984,-2.6994,-2.7012,-2.7036,-2.707,-2.7092,-2.7123,-2.7181,-2.7188,-2.7207,-2.7213,-2.7218,-2.7224,-2.7256,-2.7265,-2.7169,-2.7169,-2.7168,0,0,-2.6819,-2.6842,-2.6863,-2.6911,-2.6931,-2.6967,-2.6944,-2.6983,-2.701,-2.7,-2.7049,-2.7062,-2.709,-2.7145,-2.7169,-2.7157,-2.7252,-2.7224,-2.7228,-2.7231,-2.7262,-2.7271,-2.7279,-2.7171,-2.7171,-2.717,0,0,-2.6878,-2.6899,-2.6942,-2.6962,-2.6993,-2.7003,-2.7014,-2.7043,-2.7052,-2.7101,-2.7095,-2.7126,-2.7183,-2.7204,-2.7221,-2.7289,-2.7282,-2.7299,-2.7332,-2.7364,-2.7371,-2.7378,-2.7403,-2.7412,-2.7305,-2.7305,-2.7305,0,-2.6902,-2.6957,-2.6964,-2.7004,-2.7025,-2.7019,-2.7062,-2.7082,-2.7121,-2.7135,-2.7121,-2.7194,-2.7212,-2.7272,-2.7288,-2.7303,-2.7315,-2.7296,-2.737,-2.7377,-2.7383,-2.7407,-2.7416,-2.7307,-2.7307,-2.7306,-2.7306,0,-2.6985,-2.7023,-2.7053,-2.7093,-2.7118,-2.7159,-2.7171,-2.7195,-2.7196,-2.7207,-2.7257,-2.7279,-2.7316,-2.733,-2.733,-2.739,-2.7381,-2.7369,-2.7344,-2.7394,-2.7417,-2.7426,-2.731,-2.7309,-2.7308,-2.7308,0,0,-2.7056,-2.71,-2.7111,-2.7129,-2.7163,-2.7193,-2.7234,-2.7271,-2.7291,-2.7318,-2.7353,-2.7402,-2.7391,-2.7411,-2.7414,-2.7441,-2.7494,-2.7425,-2.7426,-2.7438,-2.7561,-2.7571,-2.7581,-2.749,-2.7492,-2.7493,-2.7559,0,-2.7119,-2.7192,-2.72,-2.7265,-2.7301,-2.7296,-2.7332,-2.7356,-2.7368,-2.7399,-2.7411,-2.7446,-2.7429,-2.7441,-2.7468,-2.7482,-2.7519,-2.7477,-2.7521,-2.7523,-2.7515,-2.7593,-2.7603,-2.7665,-2.7568,-2.7569,-2.757,0,-2.7201,-2.7233,-2.7302,-2.7332,-2.7348,-2.738,-2.7415,-2.7445,-2.7472,-2.7479,-2.7502,-2.7501,-2.7543,-2.7516,-2.7574,-2.7545,-2.7563,-2.7573,-2.7576,-2.758,-2.755,-2.76,-2.7684,-2.7694,-2.7584,-2.7583,-2.7582,0,-2.7247,-2.7307,-2.7356,-2.7372,-2.7408,-2.7431,-2.7447,-2.7473,-2.7495,-2.7525,-2.7539,-2.7573,-2.7592,-2.7618,-2.7626,-2.7606,-2.7683,-2.7657,-2.769,-2.769,-2.7706,-2.7705,-2.7795,-2.7718,-2.7718,-2.7717,-2.7717,0,-2.7317,-2.7359,-2.7378,-2.7408,-2.7456,-2.7464,-2.751,-2.7525,-2.7548,-2.7581,-2.7578,-2.7609,-2.7618,-2.765,-2.7656,-2.7703,-2.7711,-2.7718,-2.7719,-2.7718,-2.7718,-2.773,-2.7727,-2.772,-2.7719,-2.7719,-2.7718,0,-2.7376,-2.739,-2.7444,-2.7474,-2.7483,-2.7516,-2.7542,-2.7571,-2.7582,-2.7624,-2.7634,-2.7652,-2.7689,-2.77,-2.7745,-2.775,-2.7805,-2.7802,-2.7796,-2.7796,-2.7828,-2.7825,-2.793,-2.7944,-2.7857,-2.7858,-2.7858,0,-2.742,-2.7453,-2.7487,-2.7509,-2.7527,-2.7562,-2.7585,-2.7594,-2.7618,-2.7652,-2.7677,-2.7715,-2.7745,-2.7806,-2.7822,-2.7856,-2.7854,-2.7889,-2.7859,-2.7858,-2.7855,-2.7854,-2.7857,-2.7894,-2.7895,-2.7896,-2.7897,0,-2.7496,-2.7501,-2.7535,-2.7571,-2.7599,-2.7628,-2.7655,-2.7673,-2.7686,-2.7713,-2.7752,-2.7776,-2.7823,-2.786,-2.7895,-2.791,-2.7906,-2.7906,-2.7915,-2.7915,-2.791,-2.7914,-2.7811,-2.7903,-2.7903,-2.7902,-2.7902,-2.7902,-2.7549,-2.7578,-2.7607,-2.7645,-2.7667,-2.7693,-2.7722,-2.7738,-2.7771,-2.7811,-2.7814,-2.7856,-2.7883,-2.793,-2.7947,-2.798,-2.797,-2.7983,-2.7987,-2.799,-2.7993,-2.7905,-2.7986,-2.7986,-2.7986,-2.7986,-2.7986,0,-2.7625,-2.7644,-2.7678,-2.7718,-2.7747,-2.7742,-2.7772,-2.7797,-2.7835,-2.7861,-2.7892,-2.7937,-2.7973,-2.7993,-2.8029,-2.8051,-2.805,-2.8061,-2.8059,-2.8063,-2.8,-2.7988,-2.8061,-2.8061,-2.8061,-2.8061,-2.8061,-2.8061,-2.7668,-2.7718,-2.7727,-2.7788,-2.7806,-2.7848,-2.7866,-2.789,-2.7911,-2.7962,-2.7993,-2.8006,-2.8029,-2.8067,-2.81,-2.8105,-2.8119,-2.813,-2.8134,-2.8075,-2.8067,-2.806,-2.8049,-2.8133,-2.8133,-2.8194,-2.8195,-2.8195]}]]